Temp
8 7 7 7 7 8 9 9 9 10 12 12 13 14 15 16 16 16 18 19 18 18 18 17 17 17 16 16 17 16 16 15 14 13 12 11 12 12 11 11 12 12 12 12
6 6 8 8 8 8 8 8 8 10 12 12 12 12 14 16 16 17 17 18 18 17 17 17 16 16 15 15 15 15 14 14 14 13 12 12 12 11 12 12 12 12 11 11
6 8 9 8 8 8 8 8 8 8 11 12 13 12 13 14 16 18 18 19 18 17 17 16 15 15 15 14 14 14 13 13 13 12 12 11 11 12 12 11 12 11 11 11
7 8 7 8 8 8 7 9 10 10 10 9 12 11 13 15 15 15 16 17 17 16 16 15 14 14 14 14 13 13 13 12 12 12 12 13 13 12 12 12 11 11 10 10
6 6 6 7 8 9 8 10 10 10 9 9 10 10 12 14 14 15 15 16 16 17 16 15 14 14 14 13 13 13 13 12 12 13 13 13 13 12 12 11 11 10 10 9
6 8 8 8 9 9 9 9 9 9 9 9 10 11 12 13 14 15 15 14 14 15 15 14 14 13 13 13 13 12 12 12 12 12 12 12 12 12 12 11 10 10 9 9
5 5 6 8 7 8 8 8 8 8 7 9 11 10 12 12 14 17 15 13 13 14 14 13 13 13 13 12 12 12 12 12 12 12 12 12 12 12 11 10 10 9 9 8
6 5 6 7 8 8 8 9 8 7 7 8 11 11 11 13 15 16 16 15 12 13 13 13 13 13 13 12 12 12 12 12 12 12 12 12 11 11 10 10 9 8 8 7
5 6 7 7 8 9 7 7 9 9 9 9 10 11 12 13 12 12 12 11 11 11 13 13 13 12 12 12 12 12 12 12 12 12 12 12 11 10 10 9 8 8 7 7
5 4 7 7 7 8 9 9 7 8 7 9 11 11 14 13 13 11 11 11 11 11 10 12 12 12 12 12 12 11 12 12 12 12 11 11 10 9 9 8 8 7 6 6
5 5 5 6 6 8 7 8 9 9 9 9 12 12 14 15 14 12 11 12 10 10 11 12 12 12 12 12 11 11 11 12 11 11 11 10 10 9 8 7 7 6 6 5
7 6 6 7 7 8 8 9 9 9 9 10 9 10 12 15 15 13 12 12 10 10 11 12 12 12 11 11 11 11 11 11 10 10 10 9 8 8 7 6 6 5 5 4
7 6 6 6 7 7 7 9 9 10 11 9 9 11 13 11 11 13 12 11 10 10 11 12 11 11 11 11 10 10 10 9 9 9 8 8 7 7 6 5 5 5 4 3
8 6 6 7 8 8 8 9 10 9 9 10 10 11 12 11 12 10 11 11 11 11 11 11 11 11 11 10 10 9 9 8 8 8 7 7 6 6 5 5 4 4 3 2
7 6 5 6 6 6 6 10 9 8 10 10 11 10 12 12 12 11 12 11 10 10 10 11 11 11 11 10 9 8 8 8 7 7 6 6 5 5 4 4 3 3 2 2
6 6 5 6 9 9 8 10 10 10 9 8 9 9 14 12 12 10 11 11 10 10 11 11 11 11 10 10 9 8 7 7 6 6 5 5 4 4 3 3 2 2 1 1
6 6 6 9 10 10 10 10 10 6 7 7 8 11 11 11 11 9 10 11 11 11 11 11 11 11 10 9 9 8 7 6 6 5 4 4 3 3 2 2 2 1 1 0
6 7 7 8 9 10 13 12 11 9 9 9 12 11 10 8 6 8 11 12 11 11 11 11 11 11 9 9 8 7 6 5 5 4 3 3 2 2 2 1 1 0 0 -1
7 8 7 8 8 11 13 12 11 12 12 12 11 8 7 8 11 7 10 12 12 12 12 12 11 10 9 8 7 6 5 4 4 3 3 2 2 1 1 0 0 -0 -1 -1
8 9 9 7 8 12 13 13 12 13 12 11 9 8 8 9 9 6 7 10 11 11 11 11 10 9 8 7 6 5 4 3 3 2 2 1 1 1 0 -0 -1 -1 -2 -2
8 8 7 7 8 8 10 12 12 13 12 11 10 10 8 8 8 7 7 9 10 10 10 9 8 8 6 5 4 4 3 2 2 1 1 1 0 -0 -1 -1 -2 -2 -2 -3
8 9 9 9 8 7 11 13 14 11 10 9 9 8 7 5 6 6 7 8 8 8 7 7 7 6 5 4 3 3 2 2 1 1 0 -0 -1 -1 -1 -2 -2 -3 -3 -3
9 9 10 8 8 9 10 12 11 12 10 8 9 9 10 6 6 6 6 6 7 7 6 5 6 5 3 3 2 2 1 1 0 0 -1 -1 -1 -2 -2 -3 -3 -3 -3 -4
9 9 10 10 10 10 10 11 11 11 11 10 10 9 9 7 6 6 6 6 6 5 5 5 5 4 3 2 1 1 1 0 -0 -1 -1 -2 -2 -3 -3 -3 -4 -4 -4 -5
7 8 8 8 8 8 9 10 11 11 11 10 9 9 8 8 6 6 6 6 5 5 4 4 3 2 2 1 0 -0 -0 -1 -1 -2 -2 -2 -3 -3 -3 -4 -4 -5 -5 -7
6 7 9 9 9 10 9 10 10 11 9 9 9 7 7 8 7 6 6 5 5 4 3 2 2 1 1 -0 -1 -1 -1 -2 -2 -2 -3 -3 -3 -3 -4 -4 -4 -5 -6 -7
Height
1481 1484 1480 1482 1481 1479 1479 1477 1473 1474 1471 1472 1465 1457 1455 1454 1450 1449 1448 1449 1451 1452 1456 1457 1457 1458 1459 1461 1464 1466 1469 1471 1472 1478 1481 1484 1486 1489 1492 1494 1495 1496 1497 1497
1485 1479 1478 1478 1479 1480 1480 1478 1474 1474 1472 1470 1463 1455 1451 1445 1441 1442 1441 1443 1446 1449 1451 1453 1454 1454 1456 1458 1460 1463 1466 1469 1473 1477 1481 1484 1486 1489 1492 1494 1494 1495 1496 1496
1480 1473 1471 1474 1475 1477 1475 1476 1479 1481 1474 1462 1461 1449 1447 1436 1437 1437 1435 1437 1440 1443 1445 1447 1449 1452 1454 1457 1459 1462 1466 1470 1474 1477 1480 1482 1485 1488 1491 1492 1493 1494 1495 1494
1474 1472 1470 1470 1471 1475 1473 1471 1472 1473 1476 1473 1459 1452 1437 1430 1430 1430 1430 1431 1433 1438 1442 1446 1446 1449 1452 1456 1460 1463 1466 1470 1474 1476 1478 1480 1483 1487 1490 1491 1492 1493 1493 1492
1466 1464 1465 1466 1465 1466 1466 1467 1468 1469 1469 1472 1458 1464 1431 1427 1424 1420 1420 1422 1425 1430 1436 1440 1442 1446 1451 1456 1459 1464 1466 1470 1473 1475 1479 1482 1485 1487 1488 1490 1491 1491 1491 1490
1460 1459 1459 1457 1458 1461 1463 1466 1465 1464 1466 1463 1447 1454 1428 1423 1412 1413 1411 1414 1418 1425 1432 1438 1443 1445 1448 1455 1459 1463 1465 1469 1472 1475 1478 1482 1484 1485 1487 1488 1489 1490 1489 1489
1458 1458 1457 1455 1457 1457 1462 1468 1466 1467 1467 1447 1434 1443 1421 1411 1405 1400 1403 1406 1413 1420 1427 1434 1438 1442 1446 1452 1457 1462 1464 1467 1470 1474 1476 1480 1482 1484 1486 1487 1487 1487 1487 1486
1449 1454 1450 1446 1447 1450 1451 1454 1457 1461 1460 1448 1434 1426 1411 1398 1395 1396 1396 1403 1407 1414 1422 1430 1434 1438 1442 1450 1455 1460 1463 1465 1468 1472 1475 1478 1480 1482 1484 1484 1485 1485 1485 1484
1447 1445 1435 1435 1439 1445 1448 1452 1442 1449 1440 1442 1426 1414 1401 1391 1388 1388 1389 1395 1402 1407 1417 1425 1431 1437 1441 1448 1454 1459 1462 1464 1467 1471 1473 1476 1478 1480 1482 1482 1483 1483 1483 1481
1439 1449 1432 1432 1436 1438 1436 1435 1451 1453 1456 1437 1415 1410 1393 1385 1386 1386 1392 1393 1400 1407 1415 1423 1430 1436 1441 1448 1453 1459 1463 1464 1466 1470 1472 1475 1476 1478 1480 1480 1481 1480 1480 1479
1434 1439 1437 1433 1429 1430 1438 1435 1433 1434 1437 1430 1411 1400 1377 1373 1371 1386 1392 1391 1397 1404 1412 1421 1429 1436 1441 1447 1452 1457 1461 1463 1465 1468 1470 1473 1475 1476 1478 1478 1478 1478 1477 1475
1427 1430 1428 1422 1420 1423 1424 1424 1425 1426 1429 1424 1426 1409 1381 1373 1371 1379 1390 1390 1398 1404 1411 1420 1427 1433 1439 1445 1450 1455 1459 1462 1465 1467 1469 1471 1473 1474 1476 1476 1476 1475 1474 1472
1422 1420 1420 1416 1419 1420 1417 1418 1420 1421 1417 1423 1424 1403 1380 1377 1379 1382 1386 1393 1400 1406 1413 1420 1427 1431 1437 1443 1448 1453 1457 1460 1463 1465 1467 1469 1471 1473 1474 1474 1473 1472 1471 1469
1413 1414 1412 1404 1402 1408 1406 1405 1410 1421 1418 1413 1409 1407 1387 1387 1380 1384 1388 1392 1397 1403 1411 1419 1425 1430 1436 1442 1447 1451 1455 1459 1461 1464 1466 1468 1470 1471 1471 1471 1471 1469 1467 1465
1410 1410 1411 1406 1402 1405 1403 1393 1401 1409 1405 1406 1402 1412 1393 1390 1378 1380 1384 1392 1398 1405 1411 1416 1421 1428 1434 1440 1445 1450 1454 1457 1460 1462 1464 1466 1468 1469 1469 1469 1467 1466 1464 1462
1408 1406 1406 1391 1371 1375 1386 1386 1393 1397 1407 1412 1412 1410 1388 1381 1378 1381 1385 1391 1397 1403 1408 1414 1421 1427 1432 1438 1443 1448 1452 1455 1458 1460 1463 1464 1466 1466 1467 1466 1464 1463 1461 1459
1405 1404 1398 1376 1369 1372 1379 1378 1384 1400 1407 1410 1415 1393 1376 1379 1382 1385 1387 1389 1393 1399 1405 1411 1418 1425 1432 1437 1443 1447 1450 1454 1456 1459 1461 1462 1463 1464 1464 1463 1461 1460 1458 1455
1398 1399 1397 1382 1376 1379 1362 1364 1374 1387 1391 1394 1384 1375 1375 1380 1387 1388 1389 1391 1394 1399 1405 1412 1418 1426 1433 1438 1443 1446 1450 1452 1455 1457 1459 1460 1461 1461 1461 1460 1459 1456 1454 1451
1390 1393 1394 1388 1384 1371 1364 1369 1375 1377 1379 1376 1375 1379 1381 1384 1385 1391 1390 1393 1396 1400 1406 1412 1420 1427 1432 1437 1441 1445 1448 1451 1453 1455 1457 1458 1459 1459 1458 1457 1456 1453 1450 1447
1387 1388 1391 1392 1392 1376 1367 1365 1365 1365 1380 1371 1372 1377 1381 1382 1394 1398 1394 1395 1398 1403 1409 1415 1422 1428 1433 1437 1441 1444 1447 1449 1452 1454 1455 1456 1456 1456 1455 1454 1452 1450 1446 1443
1388 1389 1395 1396 1393 1384 1366 1364 1365 1375 1379 1366 1370 1371 1377 1382 1385 1391 1396 1399 1403 1408 1413 1419 1424 1429 1434 1437 1440 1443 1446 1448 1450 1452 1453 1454 1454 1453 1453 1451 1449 1446 1442 1438
1383 1385 1387 1389 1393 1396 1364 1364 1366 1368 1366 1366 1368 1373 1378 1381 1386 1393 1399 1403 1407 1411 1416 1421 1425 1430 1434 1437 1440 1442 1445 1447 1449 1451 1451 1452 1452 1451 1450 1448 1446 1442 1438 1433
1379 1374 1376 1383 1380 1367 1366 1366 1366 1366 1367 1369 1369 1375 1377 1383 1390 1397 1402 1407 1411 1415 1418 1423 1427 1430 1434 1437 1440 1442 1444 1447 1448 1449 1450 1450 1450 1449 1447 1444 1441 1437 1432 1427
1370 1368 1370 1373 1364 1366 1367 1367 1368 1369 1370 1371 1373 1376 1381 1385 1394 1400 1405 1410 1413 1417 1421 1425 1428 1431 1434 1437 1440 1442 1444 1446 1447 1448 1448 1448 1447 1446 1444 1441 1437 1432 1428 1423
1368 1367 1370 1371 1366 1367 1367 1368 1369 1370 1373 1375 1379 1382 1386 1390 1398 1402 1407 1412 1416 1419 1423 1426 1429 1431 1434 1437 1439 1442 1443 1445 1446 1446 1446 1445 1444 1443 1440 1437 1433 1429 1426 1421
1360 1361 1366 1364 1357 1360 1361 1365 1369 1371 1374 1378 1381 1387 1393 1396 1399 1405 1410 1414 1417 1420 1423 1426 1429 1432 1434 1437 1439 1441 1442 1443 1444 1444 1444 1443 1441 1439 1436 1433 1430 1427 1422 1419
Wind_Speed
2 4 11 11 10 5 8 9 12 4 5 10 16 17 18 18 22 21 31 27 20 29 24 19 16 16 18 18 21 25 29 29 25 22 24 21 18 16 14 12 13 10 6 2
3 11 8 7 8 10 11 15 15 10 10 9 10 15 14 16 17 24 27 26 24 27 25 20 17 17 17 17 19 26 31 28 22 20 21 18 18 16 17 17 14 8 4 3
14 6 15 13 11 10 14 17 9 9 13 18 13 22 14 12 19 28 27 31 29 35 30 24 22 21 18 20 22 25 27 24 19 19 20 21 20 21 20 16 11 6 2 4
13 18 15 10 15 10 17 8 13 13 7 6 4 9 9 11 14 12 19 23 35 36 29 26 27 26 23 23 25 25 25 22 21 20 22 22 24 23 17 13 9 5 1 4
8 8 16 21 18 14 11 8 12 11 10 8 18 8 6 12 12 17 16 29 36 42 36 34 32 29 26 26 26 25 24 22 20 20 20 22 21 18 16 12 8 5 1 6
8 2 5 7 11 18 4 10 8 7 4 10 15 9 9 12 13 10 8 27 35 41 38 37 34 32 30 28 27 26 25 24 23 23 23 21 18 16 13 10 7 4 4 7
6 18 5 2 4 5 13 8 4 6 6 8 5 12 18 8 15 20 12 23 33 42 42 41 39 37 34 32 30 30 29 29 26 24 22 20 17 13 11 9 6 5 5 7
7 3 14 11 17 6 14 16 5 6 4 4 8 10 6 17 20 25 24 29 38 43 45 45 42 39 37 35 34 32 31 30 27 24 23 20 16 13 12 9 7 5 6 9
6 6 2 5 5 14 5 11 20 7 5 3 6 4 8 11 6 8 15 30 34 42 48 46 42 40 38 35 33 31 30 28 27 25 23 19 16 14 12 10 7 5 7 10
6 3 6 4 7 12 10 7 6 6 5 5 5 5 6 6 6 4 14 22 31 36 41 44 42 40 37 35 33 31 29 28 27 24 21 18 16 14 11 8 6 5 8 11
4 4 1 1 6 12 9 9 5 7 8 3 4 4 8 13 9 12 15 27 33 38 45 44 41 38 36 34 33 31 29 27 26 23 20 18 15 13 10 7 6 7 10 13
11 4 5 11 4 10 15 13 13 7 10 8 2 6 4 17 9 16 19 27 30 38 44 43 41 39 36 34 31 30 28 25 23 21 18 16 14 11 8 6 6 9 12 14
10 4 2 4 7 11 12 16 15 13 3 9 3 8 9 3 8 14 19 24 29 34 39 40 39 38 36 33 31 28 25 23 21 19 17 15 12 9 7 6 8 10 12 14
18 4 6 8 3 1 10 20 18 16 10 8 13 10 21 7 8 7 17 27 34 39 41 40 39 38 35 32 29 27 25 21 20 17 15 13 10 8 7 7 8 10 12 13
7 6 6 14 17 14 11 18 23 14 6 13 3 16 29 18 11 13 23 26 29 32 37 41 40 38 34 32 29 26 23 20 18 16 14 12 10 8 7 7 8 11 11 12
5 3 4 16 14 17 7 20 21 11 7 6 11 15 19 2 10 11 23 26 27 33 38 39 39 37 35 32 29 25 22 19 16 14 13 11 9 7 7 8 9 10 11 13
7 4 3 4 6 12 7 19 15 4 8 15 13 19 5 4 6 4 19 29 33 35 39 39 38 37 34 29 24 22 20 17 14 13 12 10 8 7 7 9 10 10 12 16
6 3 5 1 0 3 1 17 23 23 22 22 11 5 5 8 12 9 14 22 26 32 34 34 34 33 28 24 20 18 16 14 12 12 11 8 6 6 7 9 9 10 14 19
5 3 4 3 2 3 3 5 8 11 8 5 7 6 7 19 15 12 6 16 23 28 29 28 27 27 24 21 19 17 14 12 12 11 9 6 5 6 8 8 9 13 17 20
5 2 1 4 2 3 2 2 1 2 2 5 8 12 12 7 4 2 11 15 20 22 23 25 25 22 20 19 16 14 13 13 11 9 7 5 5 7 7 8 11 16 20 22
2 1 4 1 2 6 5 2 1 4 5 2 15 19 12 5 2 24 22 25 25 24 24 22 21 20 18 17 14 14 13 12 10 7 4 5 6 6 7 9 14 19 22 24
5 4 3 3 0 5 1 2 1 3 2 4 15 15 16 24 33 29 25 25 24 24 23 20 20 19 17 15 13 14 12 10 7 5 4 4 5 6 8 12 16 19 23 26
3 5 5 7 5 2 1 0 2 4 6 9 21 24 26 34 32 29 28 26 24 22 21 19 18 18 16 14 11 11 10 8 5 4 4 4 5 7 10 15 18 22 25 26
3 2 2 2 1 1 3 5 4 10 9 15 23 26 29 35 32 30 28 26 23 20 19 18 15 15 16 14 12 9 8 6 5 4 3 3 6 9 13 16 20 23 24 25
4 7 5 4 2 2 4 6 10 13 18 20 22 24 30 34 32 29 26 23 20 18 17 14 13 13 13 12 11 9 7 5 4 2 3 5 8 12 15 18 21 22 22 22
5 6 5 5 9 6 6 16 17 21 25 24 27 28 28 29 29 25 22 19 17 17 16 15 13 12 12 12 11 8 6 4 2 2 4 8 11 14 17 20 21 20 21 21
Wind_Direction
254 212 221 224 221 248 292 290 270 14 321 289 267 274 258 255 248 232 245 253 245 214 212 214 220 224 223 217 216 210 203 202 205 191 180 179 182 177 175 178 155 153 148 103
313 243 232 236 230 235 250 264 273 293 273 268 279 286 277 245 245 233 235 238 237 206 204 206 209 210 212 208 197 194 196 197 201 199 188 188 179 169 164 158 153 147 124 38
225 250 228 220 233 233 239 245 265 261 295 280 284 286 265 254 243 248 240 241 221 202 202 201 195 195 196 190 184 184 190 193 190 187 184 179 171 163 161 157 156 148 105 16
241 232 261 236 234 212 247 221 238 252 268 259 115 277 238 239 238 238 236 214 212 202 200 191 187 187 187 181 181 185 184 185 185 184 184 177 168 164 161 163 162 158 124 358
213 209 217 233 234 222 253 225 234 237 240 271 263 265 251 231 244 223 224 211 210 202 199 190 188 188 183 181 180 182 178 176 175 173 170 165 163 165 166 171 177 184 295 335
216 168 214 212 230 227 246 234 263 246 230 240 241 220 239 231 230 231 223 211 199 196 191 186 183 180 179 180 179 180 179 176 169 166 166 172 174 174 179 186 193 216 287 321
199 234 266 209 226 209 209 236 249 209 207 243 226 206 245 258 243 224 218 195 190 187 186 179 178 179 180 181 184 184 180 171 169 172 173 178 183 187 195 202 217 247 289 320
194 246 198 194 216 179 205 203 209 203 202 221 160 237 243 223 246 255 257 219 178 179 181 180 181 181 178 177 178 180 180 176 177 181 181 185 190 196 203 213 226 256 297 321
202 248 209 226 180 189 204 207 220 310 268 244 215 278 276 253 288 207 162 162 168 168 180 183 182 180 177 179 182 184 182 179 180 185 189 191 198 203 209 216 229 262 302 319
214 263 204 170 181 222 197 161 155 204 240 241 241 234 226 236 213 145 162 166 168 169 174 181 180 180 179 182 183 185 188 186 185 190 194 198 201 205 214 223 243 280 307 317
143 202 172 350 182 205 212 223 206 173 233 266 279 251 203 219 167 176 190 171 168 171 178 182 181 182 181 182 183 185 188 191 190 193 197 202 205 210 218 230 257 293 311 317
201 207 223 234 240 248 210 216 205 209 206 247 319 279 56 238 212 171 187 172 172 173 179 182 182 182 182 184 186 189 192 194 195 196 200 203 209 214 224 242 276 304 314 317
166 219 244 237 200 223 216 208 200 226 221 236 190 273 11 140 152 177 161 163 167 170 180 183 184 184 185 188 190 193 196 198 199 201 204 208 212 219 231 259 291 307 313 317
165 203 240 260 341 39 210 200 204 202 235 208 229 277 287 270 153 152 163 164 170 178 184 186 185 186 188 191 194 196 198 202 204 204 208 213 217 224 244 274 296 309 316 319
164 223 218 245 246 217 245 205 189 192 180 200 209 213 254 249 180 181 170 165 165 172 183 189 187 188 191 193 196 198 201 203 206 211 214 216 221 233 258 279 300 314 319 322
172 248 243 283 263 203 207 191 191 181 187 237 262 288 247 152 115 134 162 163 169 177 187 191 191 190 192 194 196 197 201 205 209 214 217 218 224 243 263 286 308 316 317 324
171 188 286 302 119 129 163 172 177 174 228 196 224 234 163 77 88 117 164 173 178 183 191 193 193 194 194 195 198 198 200 204 209 212 212 216 228 249 276 302 312 314 321 327
181 185 233 304 350 58 67 178 181 196 205 216 211 103 118 120 101 90 178 186 181 185 189 191 192 192 191 192 192 193 197 201 205 205 207 214 232 264 294 307 310 318 324 329
168 165 293 20 299 280 97 94 160 194 199 220 140 111 109 128 91 42 110 185 188 190 188 188 188 187 186 185 186 190 192 198 196 196 199 214 249 285 300 302 310 320 326 330
185 170 316 356 38 30 262 340 87 150 290 172 146 155 160 175 113 234 119 153 164 169 170 169 171 173 176 177 183 188 188 185 184 187 200 234 277 295 296 303 315 325 329 330
130 171 207 348 317 292 258 292 41 120 237 159 174 170 157 137 168 146 132 129 136 141 146 152 158 164 170 172 177 178 175 175 178 187 216 264 286 285 293 310 322 328 328 328
153 159 178 154 173 286 250 359 176 210 85 166 156 151 118 122 134 135 136 134 138 140 141 149 154 159 161 165 169 168 169 171 179 203 245 273 271 285 307 318 324 327 329 330
185 182 170 181 212 242 138 15 113 157 134 134 140 145 142 138 139 141 138 139 139 140 143 148 155 153 152 156 164 169 169 176 191 223 252 259 286 311 318 323 327 329 331 334
268 148 192 128 267 175 155 135 133 144 131 140 140 143 148 143 145 143 142 140 140 142 144 147 153 155 155 161 165 172 174 184 206 227 244 285 306 314 323 327 329 333 337 338
200 148 168 275 280 46 207 184 158 143 146 143 142 145 146 144 146 144 143 144 144 146 149 151 157 158 160 163 167 171 181 194 206 222 277 303 317 325 325 328 334 336 337 341
189 176 166 219 194 180 202 175 163 151 150 151 148 145 148 148 146 147 145 148 151 154 156 157 162 164 161 163 170 177 182 188 206 267 305 323 326 326 328 330 328 332 338 342